[[{"header":{"parameterUnit":"m.s-1","parameterCategory":1,"la1":30.2992,"la2":30.254,"lo1":-89.0895,"lo2":-89.0443,"dy":0.0025,"dx":0.0025,"nx":19,"ny":19,"refTime":"2026-05-07T03:00:00:Z","depth":0,"parameterNumber":2,"parameterNumberName":"U-component_of_WINDS"},"data":[0,0,0,-3.9793,-3.9793,-3.9803,-3.9803,-3.9832,-3.9832,0,0,0,0,0,0,0,0,0,0,0,-3.98,-3.98,-3.9793,-3.9793,-3.9803,-3.9803,-3.9832,-3.9832,0,0,0,0,0,0,0,0,0,0,0,-3.98,-3.98,-3.9801,-3.9793,-3.9803,-3.9803,-3.9832,-3.9819,0,0,0,0,0,0,0,0,0,0,-3.9807,-3.9822,-3.98,-3.9801,-3.9794,-3.9803,-3.9803,-3.9818,-3.9819,-3.9835,0,-3.9851,0,-3.9842,-3.9835,-3.9835,0,0,0,-3.9786,-3.9821,-3.9815,-3.9801,-3.9794,-3.9803,-3.9796,-3.9818,-3.982,-3.9837,-3.9851,-3.9851,-3.9842,-3.9836,-3.9836,-3.9946,-3.9947,0,0,-3.9786,-3.9807,-3.9814,-3.9817,-3.9815,-3.9796,-3.9797,-3.9819,-3.9836,-3.9851,-3.9852,-3.9843,-3.9836,-3.9836,-3.9946,-3.9947,0,0,0,-3.9789,-3.9807,-3.9799,-3.9816,-3.9816,-3.9797,-3.9797,-3.9835,-3.9831,-3.9852,-3.9843,-3.9836,-3.9837,-3.9945,-3.9946,-4.0006,0,0,0,-3.9788,-3.9809,-3.98,-3.9813,-3.9816,-3.9825,-3.9812,-3.9829,-3.9831,-3.9843,-3.9836,-3.9837,-3.9944,-3.9945,-4.0002,-4.003,0,0,0,-3.9796,-3.9809,-3.9814,-3.9814,-3.9819,-3.9824,-3.9821,-3.9829,-3.9826,-3.9835,-3.9837,-3.9943,-3.9945,-3.9999,-4.0024,-4.0063,0,0,0,-3.981,-3.9869,-3.9816,-3.9878,-3.9819,-3.9863,-3.9821,-3.9853,-3.9868,-3.9836,-3.9944,-3.9946,-3.9998,-4.0021,-4.006,-4.0097,-4.0115,0,0,-3.9896,-3.988,-3.9915,-3.9868,-3.9926,-3.9859,-3.9927,-3.9922,-3.9904,-3.9934,-3.9936,-4.0003,-4.0024,-4.0062,-4.0216,-4.0231,0,0,0,-3.9949,-3.9974,-3.9985,-4.0,-3.9998,-3.9998,-3.998,-3.9978,-4.0002,-3.9924,-4.0029,-4.0041,-4.0062,-4.0079,-4.0091,-4.0107,-3.9955,-3.9955,-3.9955,-4.0098,-4.0072,-4.0128,-4.0103,-4.012,-4.0101,-4.0111,-4.0106,-4.0076,-4.0102,-4.0109,-4.0205,-4.0226,-4.0235,-4.0252,-4.0129,-4.013,-4.013,-4.013,-4.0218,-4.0248,-4.0208,-4.0247,-4.022,-4.0253,-4.0238,-4.0216,-4.0243,-4.0198,-4.0216,-4.0165,-4.0252,-4.0265,-4.0134,-4.0134,-4.0133,-4.0133,-4.0132,-4.031,-4.0319,-4.0317,-4.0336,-4.0355,-4.0329,-4.0356,-4.0332,-4.0309,-4.0327,-4.033,-4.0329,-4.0322,-4.0331,-4.0332,-4.0332,-4.0332,-4.0332,-4.0333,-4.0404,-4.0399,-4.0424,-4.0427,-4.0434,-4.044,-4.0424,-4.043,-4.043,-4.041,-4.041,-4.0376,-4.0266,-4.0237,-4.0338,-4.0337,-4.0336,-4.0336,-4.0335,-4.0528,-4.0496,-4.0535,-4.0542,-4.0543,-4.0563,-4.0533,-4.0547,-4.0549,-4.0563,-4.0527,-4.0451,-4.0433,-4.0423,-4.0398,-4.0534,-4.0534,-4.0534,-4.0534,-4.0602,-4.0592,-4.0625,-4.0637,-4.0647,-4.0624,-4.0668,-4.0658,-4.0641,-4.0641,-4.0619,-4.0586,-4.0577,-4.0563,-4.055,-4.0526,-4.0692,-4.0692,-4.0692,-4.0676,-4.0666,-4.0707,-4.069,-4.069,-4.0691,-4.0732,-4.0748,-4.0723,-4.0698,-4.0639,-4.0632,-4.0579,-4.0563,-4.0532,-4.0513,-4.0469,0,0]},{"header":{"parameterUnit":"m.s-1","parameterCategory":1,"la1":30.2992,"la2":30.254,"lo1":-89.0895,"lo2":-89.0443,"dy":0.0025,"dx":0.0025,"nx":19,"ny":19,"refTime":"2026-05-07T03:00:00:Z","depth":0,"parameterNumber":3,"parameterNumberName":"V-component_of_WINDS"},"data":[0,0,0,3.4099,3.41,3.4158,3.4158,3.423,3.423,0,0,0,0,0,0,0,0,0,0,0,3.4082,3.4083,3.4099,3.41,3.4158,3.4158,3.423,3.423,0,0,0,0,0,0,0,0,0,0,0,3.4082,3.4082,3.4083,3.41,3.4158,3.4158,3.4229,3.4186,0,0,0,0,0,0,0,0,0,0,3.413,3.4116,3.4082,3.4083,3.4101,3.4158,3.4158,3.4184,3.4189,3.4203,0,3.4217,0,3.4225,3.4235,3.4235,0,0,0,3.4099,3.4112,3.4127,3.4083,3.4101,3.4158,3.4132,3.4187,3.4192,3.421,3.4218,3.4221,3.4226,3.4236,3.4236,3.4325,3.4326,0,0,3.4096,3.4092,3.4124,3.4131,3.4124,3.413,3.4133,3.419,3.4199,3.4219,3.4223,3.4228,3.4236,3.4237,3.4325,3.4325,0,0,0,3.4088,3.409,3.4104,3.4128,3.4139,3.4131,3.4136,3.4196,3.4201,3.4224,3.4228,3.4237,3.4237,3.4324,3.4325,3.4344,0,0,0,3.4086,3.4085,3.4103,3.4101,3.4138,3.4168,3.4141,3.4197,3.4204,3.4228,3.4237,3.4238,3.4324,3.4325,3.4342,3.4353,0,0,0,3.4078,3.4084,3.4093,3.41,3.4125,3.4168,3.4176,3.4199,3.4207,3.4235,3.4238,3.4323,3.4325,3.4341,3.4351,3.4375,0,0,0,3.4068,3.4107,3.4093,3.4138,3.4125,3.418,3.4176,3.4216,3.4243,3.4237,3.4324,3.4325,3.434,3.4349,3.4374,3.4395,3.4404,0,0,3.4115,3.4113,3.414,3.4129,3.4185,3.4171,3.423,3.4257,3.4263,3.4304,3.4306,3.4343,3.435,3.4375,3.4455,3.4462,0,0,0,3.4153,3.4173,3.4189,3.4215,3.4238,3.4259,3.4278,3.4289,3.4324,3.4284,3.4359,3.4363,3.4378,3.4388,3.4394,3.4407,3.433,3.433,3.433,3.4212,3.4219,3.4265,3.4279,3.4304,3.4325,3.4346,3.4363,3.4361,3.4379,3.439,3.4438,3.445,3.4455,3.4468,3.4403,3.4403,3.4403,3.4403,3.4281,3.4309,3.4308,3.4352,3.4359,3.4395,3.4416,3.4414,3.4447,3.443,3.4443,3.4422,3.4462,3.4474,3.4404,3.4404,3.4404,3.4404,3.4404,3.432,3.4335,3.4348,3.4388,3.4417,3.443,3.4463,3.4468,3.4472,3.4485,3.4498,3.4498,3.4497,3.4491,3.4491,3.4492,3.4492,3.4492,3.4492,3.4354,3.4369,3.4397,3.4427,3.4445,3.4469,3.4491,3.4508,3.4528,3.4529,3.4529,3.4525,3.4465,3.445,3.4495,3.4494,3.4494,3.4494,3.4493,3.442,3.4407,3.445,3.4469,3.4504,3.4533,3.4539,3.4574,3.4589,3.4605,3.4599,3.4555,3.4552,3.4547,3.4534,3.4598,3.4598,3.4598,3.4598,3.4452,3.4452,3.4499,3.4528,3.4557,3.4567,3.4615,3.4633,3.4648,3.4658,3.465,3.4633,3.4628,3.4628,3.4622,3.461,3.4692,3.4692,3.4692,3.4493,3.4496,3.4537,3.4554,3.4582,3.4606,3.4651,3.4683,3.4698,3.4696,3.4665,3.4661,3.4635,3.4626,3.4622,3.4612,3.459,0,0]}]]